FW9412 Weather Reports


time (UTC)temp
F
wind
direction
speed
knots
gust
knots
rain 1hr
in
rain 24hr
in
rain mn
in
humidity
%
barometer
mb
20260505153107 70 202 1.7 2.6 0.00 0.00 0.00 59 1004.5
20260505152603 70 233 4.3 5.2 0.00 0.00 0.00 57 1004.4
20260505152059 70 219 4.3 5.2 0.00 0.00 0.00 58 1004.4
20260505151554 70 206 6.1 7.0 0.00 0.00 0.00 57 1004.6
20260505151052 70 204 2.6 2.6 0.00 0.00 0.00 60 1004.5
20260505150548 70 218 5.2 7.0 0.00 0.00 0.00 57 1004.2
20260505140513 69 199 1.7 1.7 0.00 0.00 0.00 61 1004.0
20260505124926 66 204 2.6 4.3 0.00 0.00 0.00 64 1004.4
20260505124423 66 212 4.3 6.1 0.00 0.00 0.00 64 1004.2
20260505123919 65 182 4.3 5.2 0.00 0.00 0.00 64 1004.4
20260505123416 65 207 1.7 1.7 0.00 0.00 0.00 65 1004.4
20260505122912 65 211 2.6 2.6 0.00 0.00 0.00 67 1004.4
20260505122410 64 194 2.6 4.3 0.00 0.00 0.00 67 1004.3
20260505121906 64 214 2.6 2.6 0.00 0.00 0.00 67 1004.3
20260505121403 64 192 0.9 1.7 0.00 0.00 0.00 67 1004.4
20260505120859 64 221 0.9 1.7 0.00 0.00 0.00 67 1004.5
20260505120356 64 222 4.3 7.0 0.00 0.00 0.00 68 1004.4
20260505115854 64 199 3.5 4.3 0.00 0.00 0.00 67 1004.5
20260505115352 64 214 1.7 2.6 0.00 0.00 0.00 67 1004.0
20260505114849 64 180 0.9 0.9 0.00 0.00 0.00 67 1004.4
20260505114345 64 193 1.7 1.7 0.00 0.00 0.00 67 1004.2
20260505113842 64 210 2.6 2.6 0.00 0.00 0.00 67 1004.1
20260505113339 63 202 4.3 6.1 0.00 0.00 0.00 66 1004.2
20260505112834 63 229 3.5 5.2 0.00 0.00 0.00 67 1004.1
20260505112332 63 192 2.6 2.6 0.00 0.00 0.00 67 1004.0
20260505111827 62 202 3.5 4.3 0.00 0.00 0.00 67 1004.1
20260505111323 62 201 2.6 2.6 0.00 0.00 0.00 68 1004.0
20260505110819 61 187 2.6 2.6 0.00 0.00 0.00 69 1004.2
20260505110317 61 205 1.7 1.7 0.00 0.00 0.00 70 1003.9
20260505101751 62 187 0.9 0.9 0.00 0.00 0.00 69 1003.5
20260505101247 62 189 2.6 2.6 0.00 0.00 0.00 69 1003.6
20260505100743 62 182 1.7 1.7 0.00 0.00 0.00 69 1003.4
20260505100240 62 188 1.7 1.7 0.00 0.00 0.00 69 1003.3
20260505095735 62 193 1.7 1.7 0.00 0.00 0.00 70 1003.3
20260505095234 61 204 2.6 2.6 0.00 0.00 0.00 70 1003.6
20260505094729 61 202 2.6 2.6 0.00 0.00 0.00 70 1003.3
20260505094226 61 204 1.7 2.6 0.00 0.00 0.00 71 1003.5
20260505093722 60 175 2.6 4.3 0.00 0.00 0.00 72 1003.6
20260505093220 60 202 1.7 1.7 0.00 0.00 0.00 74 1003.5
20260505092716 58 215 1.7 2.6 0.00 0.00 0.00 77 1003.4
20260505092215 57 184 0.9 0.9 0.00 0.00 0.00 82 1003.5
20260505091712 56 153 0.0 0.0 0.00 0.00 0.00 85 1003.8
20260505091210 56 164 0.0 0.0 0.00 0.00 0.00 86 1003.6
20260505090707 56 161 0.0 0.0 0.00 0.00 0.00 86 1003.6
20260505090205 56 165 0.0 0.0 0.00 0.00 0.00 87 1003.5
20260505085702 56 151 0.0 0.0 0.00 0.00 0.00 87 1003.6
20260505085201 56 159 0.0 0.0 0.00 0.00 0.00 88 1003.5
20260505084658 56 156 0.0 0.0 0.00 0.00 0.00 88 1003.5
20260505084156 56 154 0.0 0.0 0.00 0.00 0.00 87 1003.4
20260505083653 56 159 0.0 0.0 0.00 0.00 0.00 87 1003.5
20260505083150 57 159 0.0 0.0 0.00 0.00 0.00 86 1003.5
20260505082645 57 171 0.0 0.0 0.00 0.00 0.00 85 1003.4
20260505082143 57 180 0.9 0.9 0.00 0.00 0.00 84 1003.8
20260505081639 57 195 1.7 1.7 0.00 0.00 0.00 84 1004.1
20260505081137 57 186 0.9 0.9 0.00 0.00 0.00 84 1004.4
20260505080633 58 184 0.9 0.9 0.00 0.00 0.00 83 1004.0
20260505080129 58 197 1.7 1.7 0.00 0.00 0.00 81 1004.3
20260505075625 59 225 3.5 4.3 0.00 0.00 0.00 80 1004.5
20260505075122 60 206 3.5 4.3 0.00 0.00 0.00 78 1004.4
20260505074619 62 214 2.6 2.6 0.00 0.00 0.00 66 1004.3
20260505074116 61 199 1.7 1.7 0.00 0.00 0.00 66 1004.4
20260505073614 61 191 1.7 1.7 0.00 0.00 0.00 66 1004.0
20260505073112 61 185 0.9 1.7 0.00 0.00 0.00 67 1004.2
20260505072607 60 189 0.9 0.9 0.00 0.00 0.00 68 1004.2
20260505072104 60 169 0.9 0.9 0.00 0.00 0.00 70 1003.9
20260505071559 60 192 1.7 2.6 0.00 0.00 0.00 71 1003.9
20260505071057 60 189 0.9 1.7 0.00 0.00 0.00 71 1004.1
20260505070554 60 195 1.7 1.7 0.00 0.00 0.00 72 1004.1
20260505070050 59 171 0.0 0.9 0.00 0.00 0.00 74 1004.3
20260505065546 59 169 0.0 0.0 0.00 0.00 0.00 76 1004.4
20260505065043 60 182 0.9 0.9 0.00 0.00 0.00 75 1004.3
20260505064540 59 208 1.7 2.6 0.00 0.00 0.00 75 1004.3
20260505064039 59 169 0.0 0.9 0.00 0.00 0.00 76 1004.1
20260505063536 59 191 0.9 1.7 0.00 0.00 0.00 76 1003.9
20260505063031 59 178 0.9 0.9 0.00 0.00 0.00 76 1004.0
20260505062528 59 187 0.9 1.7 0.00 0.00 0.00 77 1003.9
20260505062026 59 184 0.9 1.7 0.00 0.00 0.00 78 1003.8
20260505061523 59 214 3.5 4.3 0.00 0.00 0.00 77 1004.0
20260505061021 60 192 5.2 6.1 0.00 0.00 0.00 75 1004.2
20260505060518 60 229 4.3 5.2 0.00 0.00 0.00 73 1004.4
20260505060015 61 183 3.5 5.2 0.00 0.00 0.00 69 1004.2
20260505055510 61 204 3.5 4.3 0.00 0.00 0.00 67 1004.2
20260505055007 62 217 3.5 5.2 0.00 0.00 0.00 65 1004.2
20260505054504 62 206 3.5 4.3 0.00 0.00 0.00 63 1004.0
20260505054002 62 207 2.6 2.6 0.00 0.00 0.00 62 1004.0
20260505053459 62 227 2.6 2.6 0.00 0.00 0.00 62 1004.0
20260505052955 62 191 2.6 2.6 0.00 0.00 0.00 61 1004.1
20260505052453 63 226 2.6 2.6 0.00 0.00 0.00 57 1004.4
20260505051950 63 209 3.5 4.3 0.00 0.00 0.00 55 1004.1
20260505051447 63 205 2.6 2.6 0.00 0.00 0.00 54 1004.3
20260505050945 63 194 2.6 2.6 0.00 0.00 0.00 54 1004.4
20260505050443 63 188 1.7 2.6 0.00 0.00 0.00 54 1004.4
20260505041411 61 201 0.9 1.7 0.00 0.00 0.00 54 1004.0
20260505040908 61 148 0.0 0.9 0.00 0.00 0.00 56 1004.0
20260505040405 62 180 0.9 0.9 0.00 0.00 0.00 53 1004.3
20260505035902 62 173 0.0 0.0 0.00 0.00 0.00 53 1003.9
20260505035357 62 190 0.9 0.9 0.00 0.00 0.00 53 1004.0
20260505034855 62 170 0.9 0.9 0.00 0.00 0.00 53 1004.1
20260505034351 62 177 0.9 0.9 0.00 0.00 0.00 52 1004.0
20260505033849 62 166 0.0 0.9 0.00 0.00 0.00 53 1003.9
20260505033345 62 174 0.0 0.0 0.00 0.00 0.00 51 1004.0
20260505032844 63 172 0.9 0.9 0.00 0.00 0.00 50 1004.1
20260505032340 63 182 0.0 0.0 0.00 0.00 0.00 50 1004.1
20260505031837 63 193 0.9 1.7 0.00 0.00 0.00 49 1004.1
20260505031333 63 196 1.7 1.7 0.00 0.00 0.00 49 1004.1
20260505030831 62 187 0.9 0.9 0.00 0.00 0.00 50 1004.1
20260505030327 62 183 0.9 1.7 0.00 0.00 0.00 51 1004.2
20260505025822 61 172 0.9 0.9 0.00 0.00 0.00 52 1004.2
20260505025320 60 171 0.9 0.9 0.00 0.00 0.00 54 1004.1
20260505024818 60 173 0.9 0.9 0.00 0.00 0.00 53 1004.1
20260505024316 60 147 0.0 0.0 0.00 0.00 0.00 55 1004.2
20260505023813 60 152 0.0 0.0 0.00 0.00 0.00 53 1004.1
20260505023309 60 180 0.9 0.9 0.00 0.00 0.00 53 1004.3
20260505022807 60 160 0.0 0.0 0.00 0.00 0.00 53 1004.2
20260505022304 60 152 0.0 0.0 0.00 0.00 0.00 53 1004.3
20260505021801 60 158 0.0 0.0 0.00 0.00 0.00 53 1004.5
20260505021257 60 149 0.0 0.0 0.00 0.00 0.00 53 1004.3
20260505020753 60 146 0.0 0.0 0.00 0.00 0.00 51 1004.2
20260505020248 60 153 0.0 0.0 0.00 0.00 0.00 51 1004.1
20260505015746 60 142 0.0 0.0 0.00 0.00 0.00 51 1004.1
20260505015243 61 142 0.0 0.0 0.00 0.00 0.00 51 1004.3
20260505014740 61 142 0.0 0.0 0.00 0.00 0.00 50 1004.1
20260505014237 61 142 0.0 0.0 0.00 0.00 0.00 50 1004.1
20260505013734 61 140 0.0 0.9 0.00 0.00 0.00 50 1004.2
20260505013231 61 142 0.0 0.0 0.00 0.00 0.00 51 1004.1
20260505012729 61 141 0.0 0.0 0.00 0.00 0.00 50 1004.2
20260505012226 61 143 0.0 0.0 0.00 0.00 0.00 50 1004.3
20260505011722 62 144 0.0 0.0 0.00 0.00 0.00 51 1004.0
20260505011219 62 145 0.0 0.0 0.00 0.00 0.00 47 1004.2
20260505010714 62 152 0.0 0.0 0.00 0.00 0.00 46 1004.2
20260505010212 63 153 0.0 0.0 0.00 0.00 0.00 46 1004.0
20260505005708 63 152 0.0 0.0 0.00 0.00 0.00 45 1004.1
20260505005205 63 152 0.0 0.0 0.00 0.00 0.00 45 1003.9
20260505004702 64 153 0.0 0.0 0.00 0.00 0.00 44 1004.0
20260505004159 64 153 0.0 0.0 0.00 0.00 0.00 44 1004.0
20260505003656 64 153 0.0 0.0 0.00 0.00 0.00 44 1004.0
20260505003153 64 153 0.0 0.0 0.00 0.00 0.00 44 1003.9
20260505002649 64 153 0.0 0.0 0.00 0.00 0.00 44 1004.1
20260505002148 64 153 0.0 0.0 0.00 0.00 0.00 43 1003.8
20260505001644 65 153 0.0 0.0 0.00 0.00 0.00 43 1003.9
20260505001142 65 153 0.0 0.0 0.00 0.00 0.00 44 1003.9
20260505000638 65 153 0.0 0.0 0.00 0.00 0.00 43 1004.1
20260505000137 66 154 0.0 0.0 0.00 0.00 0.00 42 1003.9
20260504235632 66 154 0.0 0.0 0.00 0.00 0.00 41 1004.0
20260504235129 66 154 0.0 0.0 0.00 0.00 0.00 41 1004.0
20260504234626 67 154 0.0 0.0 0.00 0.00 0.00 41 1003.8
20260504234124 67 154 0.0 0.0 0.00 0.00 0.00 40 1004.0
20260504233619 68 154 0.0 0.0 0.00 0.00 0.00 40 1003.8
20260504233115 69 168 0.0 0.0 0.00 0.00 0.00 40 1003.8
20260504232613 69 175 0.0 0.9 0.00 0.00 0.00 38 1004.0
20260504232110 70 158 0.0 0.0 0.00 0.00 0.00 39 1004.0
20260504231607 70 175 0.9 0.9 0.00 0.00 0.00 36 1003.8
20260504231103 70 175 0.0 0.9 0.00 0.00 0.00 39 1003.5
20260504230559 71 162 0.0 0.0 0.00 0.00 0.00 39 1003.8
20260504230058 71 176 0.0 0.9 0.00 0.00 0.00 36 1003.6
20260504225555 71 175 0.0 0.0 0.00 0.00 0.00 36 1003.8
20260504225052 71 176 0.9 0.9 0.00 0.00 0.00 36 1003.6
20260504224549 71 175 0.9 1.7 0.00 0.00 0.00 36 1003.8
20260504224046 71 210 1.7 1.7 0.00 0.00 0.00 35 1003.8
20260504223543 71 187 1.7 1.7 0.00 0.00 0.00 35 1003.9
20260504223038 72 186 0.9 0.9 0.00 0.00 0.00 37 1004.1
20260504222536 71 189 1.7 1.7 0.00 0.00 0.00 35 1004.5
20260504222033 71 204 2.6 2.6 0.00 0.00 0.00 36 1004.1
20260504221530 71 196 1.7 1.7 0.00 0.00 0.00 35 1004.0
20260504221027 71 220 1.7 2.6 0.00 0.00 0.00 35 1004.0
20260504220523 72 199 2.6 2.6 0.00 0.00 0.00 34 1004.1
20260504220021 71 222 1.7 1.7 0.00 0.00 0.00 35 1004.3
20260504215517 72 199 1.7 1.7 0.00 0.00 0.00 37 1004.0
20260504215014 71 215 2.6 2.6 0.00 0.00 0.00 37 1004.0
20260504214510 71 198 1.7 1.7 0.00 0.00 0.00 35 1004.0
20260504214006 71 205 2.6 2.6 0.00 0.00 0.00 37 1004.2
20260504213503 71 190 2.6 2.6 0.00 0.00 0.00 37 1004.2
20260504213001 71 194 1.7 1.7 0.00 0.00 0.00 37 1004.4
20260504212456 71 223 2.6 2.6 0.00 0.00 0.00 36 1004.3
20260504211954 71 199 2.6 2.6 0.00 0.00 0.00 36 1004.2
20260504211450 71 224 2.6 2.6 0.00 0.00 0.00 36 1004.3
20260504210948 71 215 4.3 5.2 0.00 0.00 0.00 36 1004.2
20260504210444 71 191 1.7 1.7 0.00 0.00 0.00 39 1004.5
20260504205941 70 257 3.5 4.3 0.00 0.00 0.00 38 1004.4
20260504205439 71 208 4.3 4.3 0.00 0.00 0.00 40 1004.4
20260504204937 70 205 2.6 2.6 0.00 0.00 0.00 39 1004.5
20260504204435 70 236 3.5 4.3 0.00 0.00 0.00 40 1004.3
20260504203934 70 214 2.6 2.6 0.00 0.00 0.00 38 1004.4
20260504203431 70 197 2.6 2.6 0.00 0.00 0.00 40 1004.5
20260504202927 71 205 3.5 4.3 0.00 0.00 0.00 38 1004.7
20260504202424 71 202 3.5 4.3 0.00 0.00 0.00 42 1004.4
20260504201920 71 214 4.3 5.2 0.00 0.00 0.00 40 1004.8
20260504201418 69 230 2.6 2.6 0.00 0.00 0.00 43 1004.6
20260504200915 70 235 3.5 4.3 0.00 0.00 0.00 42 1004.8
20260504200412 70 230 1.7 1.7 0.00 0.00 0.00 42 1004.9
20260504195909 70 243 2.6 4.3 0.00 0.00 0.00 43 1004.9
20260504195404 71 212 2.6 4.3 0.00 0.00 0.00 43 1004.9
20260504194901 70 201 1.7 1.7 0.00 0.00 0.00 43 1005.0
20260504194357 70 247 3.5 4.3 0.00 0.00 0.00 43 1005.1
20260504193853 70 237 3.5 4.3 0.00 0.00 0.00 44 1005.3
20260504193350 69 198 4.3 5.2 0.00 0.00 0.00 43 1005.2
20260504192849 70 260 5.2 6.1 0.00 0.00 0.00 43 1005.1
20260504192346 69 199 2.6 2.6 0.00 0.00 0.00 43 1005.4
20260504191845 69 223 2.6 2.6 0.00 0.00 0.00 43 1005.4
20260504191343 69 218 5.2 6.1 0.00 0.00 0.00 44 1005.6
20260504190838 69 247 6.1 7.0 0.00 0.00 0.00 43 1005.5
20260504190334 68 221 5.2 6.1 0.00 0.00 0.00 44 1005.7
20260504185830 68 206 4.3 5.2 0.00 0.00 0.00 45 1005.6
20260504185327 68 246 3.5 4.3 0.00 0.00 0.00 45 1005.4
20260504184823 68 243 3.5 4.3 0.00 0.00 0.00 45 1005.5
20260504184320 69 262 5.2 6.1 0.00 0.00 0.00 45 1005.6
20260504183815 68 214 3.5 4.3 0.00 0.00 0.00 48 1005.7
20260504183313 68 246 6.1 7.0 0.00 0.00 0.00 44 1005.8
20260504182811 68 247 5.2 6.1 0.00 0.00 0.00 46 1005.9
20260504182308 67 236 4.3 5.2 0.00 0.00 0.00 47 1005.8
20260504181805 68 202 0.9 1.7 0.00 0.00 0.00 47 1005.8
20260504181302 67 238 3.5 4.3 0.00 0.00 0.00 50 1005.9
20260504180801 68 245 5.2 7.8 0.00 0.00 0.00 46 1005.9
20260504180259 67 255 4.3 5.2 0.00 0.00 0.00 52 1005.9
20260504175757 67 254 4.3 5.2 0.00 0.00 0.00 51 1005.8
20260504175253 67 205 2.6 4.3 0.00 0.00 0.00 48 1005.9
20260504174751 66 206 3.5 4.3 0.00 0.00 0.00 49 1006.0
20260504174249 66 203 2.6 2.6 0.00 0.00 0.00 50 1006.0
20260504173745 66 267 3.5 4.3 0.00 0.00 0.00 48 1006.0
20260504173242 66 165 2.6 4.3 0.00 0.00 0.00 52 1005.9
20260504172739 65 205 2.6 4.3 0.00 0.00 0.00 49 1006.1
20260504172236 65 219 3.5 4.3 0.00 0.00 0.00 49 1006.0
20260504171732 65 214 5.2 6.1 0.00 0.00 0.00 50 1006.2
20260504171229 66 211 3.5 6.1 0.00 0.00 0.00 49 1006.3
20260504170726 65 238 5.2 6.1 0.00 0.00 0.00 50 1006.2
20260504170223 64 211 3.5 4.3 0.00 0.00 0.00 51 1006.1
20260504160142 61 215 3.5 4.3 0.00 0.00 0.00 52 1006.5